Temp
-13 -13 -13 -14 -14 -13 -13 -13 -13 -14 -13 -13 -13 -13 -13 -13 -12 -12 -12 -12 -12 -12 -11 -11 -11 -11 -11 -11 -13 -12 -12 -12 -12 -13 -13 -12 -12 -12 -12 -12 -11 -11 -13 -13 -13 -14 -15
-13 -13 -13 -13 -13 -13 -13 -14 -14 -14 -13 -13 -13 -13 -13 -13 -13 -12 -12 -12 -12 -12 -11 -11 -11 -11 -11 -11 -11 -12 -12 -12 -12 -13 -13 -12 -12 -12 -12 -12 -11 -12 -13 -13 -13 -15 -15
-14 -13 -13 -13 -13 -13 -13 -13 -13 -13 -13 -13 -13 -13 -13 -13 -13 -13 -12 -12 -12 -12 -12 -12 -11 -11 -11 -12 -11 -11 -12 -12 -12 -12 -13 -12 -12 -12 -12 -12 -12 -12 -13 -14 -15 -15 -14
-14 -14 -14 -14 -13 -13 -13 -13 -13 -13 -13 -13 -13 -13 -13 -13 -13 -13 -13 -13 -13 -12 -12 -12 -11 -10 -11 -12 -11 -11 -11 -12 -12 -12 -12 -12 -12 -13 -13 -12 -12 -12 -14 -14 -13 -14 -15
-14 -14 -14 -14 -14 -14 -14 -14 -13 -13 -13 -13 -13 -13 -13 -13 -13 -13 -13 -13 -13 -13 -12 -11 -11 -10 -11 -12 -11 -11 -11 -12 -12 -12 -12 -12 -12 -12 -13 -12 -12 -13 -13 -14 -15 -15 -15
-17 -17 -16 -16 -16 -16 -15 -14 -14 -14 -14 -14 -13 -14 -14 -13 -14 -13 -13 -13 -13 -12 -12 -12 -11 -11 -11 -12 -12 -12 -12 -12 -12 -12 -12 -12 -12 -12 -13 -13 -13 -13 -12 -16 -16 -15 -15
-17 -18 -18 -17 -18 -17 -16 -16 -16 -16 -15 -15 -15 -14 -14 -14 -14 -14 -14 -13 -14 -13 -12 -12 -11 -11 -12 -12 -12 -12 -12 -12 -12 -12 -12 -13 -11 -12 -14 -13 -13 -12 -13 -14 -15 -16 -15
-16 -16 -16 -16 -16 -16 -16 -15 -15 -15 -15 -15 -15 -15 -15 -15 -15 -16 -16 -15 -14 -13 -12 -12 -12 -11 -12 -12 -11 -12 -12 -12 -12 -12 -13 -12 -12 -13 -13 -14 -13 -12 -13 -14 -16 -15 -14
-16 -16 -16 -16 -15 -15 -15 -15 -15 -15 -15 -15 -15 -15 -15 -15 -15 -15 -15 -16 -15 -13 -11 -12 -12 -11 -13 -12 -11 -12 -12 -13 -12 -12 -12 -12 -13 -13 -13 -14 -14 -14 -14 -15 -15 -16 -15
-16 -16 -16 -16 -15 -15 -15 -15 -15 -15 -14 -14 -14 -14 -14 -14 -15 -15 -15 -15 -15 -14 -13 -11 -13 -11 -12 -12 -10 -13 -12 -12 -12 -12 -13 -11 -13 -12 -13 -14 -14 -14 -15 -15 -15 -16 -15
-16 -16 -16 -16 -15 -15 -15 -15 -15 -15 -15 -15 -14 -14 -14 -14 -14 -15 -15 -15 -15 -15 -14 -13 -12 -12 -12 -12 -12 -13 -13 -12 -12 -13 -13 -12 -13 -13 -13 -13 -14 -14 -16 -14 -15 -15 -15
-16 -16 -16 -16 -16 -16 -16 -15 -15 -15 -15 -15 -15 -14 -14 -14 -14 -15 -15 -15 -15 -15 -13 -13 -12 -12 -12 -12 -13 -13 -13 -12 -12 -13 -12 -12 -13 -13 -13 -14 -14 -14 -15 -14 -15 -15 -14
-17 -17 -17 -17 -16 -16 -16 -16 -16 -16 -16 -16 -16 -15 -15 -14 -16 -15 -15 -15 -16 -14 -12 -12 -12 -12 -13 -13 -13 -13 -13 -12 -12 -12 -12 -12 -13 -13 -13 -14 -14 -14 -15 -15 -14 -14 -14
-19 -19 -19 -19 -19 -18 -18 -18 -18 -18 -18 -18 -17 -16 -16 -16 -17 -16 -17 -16 -15 -12 -12 -14 -13 -13 -13 -13 -13 -14 -13 -13 -12 -12 -13 -13 -13 -13 -13 -14 -15 -14 -15 -15 -15 -15 -15
-21 -21 -21 -21 -21 -21 -21 -21 -21 -20 -20 -20 -20 -19 -17 -18 -20 -18 -19 -18 -13 -12 -13 -14 -17 -15 -13 -13 -14 -14 -13 -13 -13 -13 -13 -13 -13 -14 -15 -14 -14 -14 -15 -15 -15 -14 -15
-22 -22 -22 -23 -23 -23 -23 -23 -22 -22 -22 -22 -21 -21 -20 -21 -21 -21 -20 -16 -13 -14 -13 -15 -19 -18 -17 -16 -16 -15 -15 -13 -13 -13 -14 -14 -14 -15 -15 -15 -15 -16 -15 -15 -15 -15 -15
-23 -23 -23 -23 -23 -23 -23 -23 -22 -22 -22 -22 -22 -21 -21 -21 -21 -21 -19 -16 -17 -17 -16 -18 -19 -18 -17 -18 -17 -16 -16 -16 -15 -14 -15 -14 -15 -15 -15 -15 -14 -15 -15 -15 -15 -15 -15
-23 -23 -23 -23 -23 -22 -22 -22 -22 -22 -22 -22 -22 -21 -21 -22 -21 -20 -19 -18 -19 -18 -18 -18 -20 -19 -18 -19 -18 -16 -16 -14 -16 -16 -15 -14 -15 -15 -14 -14 -14 -14 -15 -16 -15 -15 -16
-23 -23 -23 -22 -22 -22 -22 -22 -22 -22 -22 -22 -22 -21 -21 -22 -20 -19 -19 -19 -19 -19 -19 -19 -20 -21 -20 -19 -19 -17 -16 -16 -16 -17 -15 -16 -15 -15 -15 -15 -15 -15 -15 -16 -16 -15 -16
-22 -22 -22 -22 -22 -22 -22 -22 -22 -21 -22 -22 -22 -21 -21 -20 -20 -19 -19 -19 -19 -19 -19 -19 -20 -20 -21 -20 -19 -18 -16 -17 -17 -16 -17 -17 -16 -15 -14 -15 -15 -15 -15 -16 -15 -15 -15
-22 -22 -22 -22 -22 -22 -21 -21 -21 -21 -21 -22 -22 -20 -20 -19 -19 -19 -19 -19 -19 -19 -19 -19 -19 -20 -19 -21 -20 -19 -18 -17 -17 -16 -17 -16 -16 -15 -16 -16 -16 -16 -16 -16 -16 -15 -15
-22 -22 -21 -21 -21 -21 -21 -21 -21 -21 -22 -22 -22 -21 -20 -20 -20 -20 -20 -19 -19 -20 -19 -19 -19 -20 -21 -19 -20 -20 -19 -18 -17 -17 -17 -17 -16 -16 -16 -16 -17 -16 -16 -16 -16 -16 -16
-22 -21 -21 -21 -21 -21 -21 -20 -21 -21 -22 -22 -22 -21 -21 -20 -21 -21 -19 -19 -19 -20 -20 -20 -20 -20 -20 -20 -21 -21 -20 -19 -18 -17 -17 -16 -16 -17 -16 -17 -17 -16 -15 -16 -16 -16 -16
-22 -21 -21 -21 -21 -20 -21 -21 -21 -21 -21 -23 -22 -22 -23 -21 -21 -20 -20 -20 -20 -20 -20 -20 -20 -20 -19 -22 -22 -22 -21 -19 -18 -17 -17 -17 -17 -18 -17 -17 -17 -14 -15 -16 -16 -16 -16
-22 -22 -21 -21 -21 -21 -21 -21 -21 -22 -22 -24 -24 -24 -24 -24 -22 -22 -21 -21 -22 -22 -21 -21 -20 -20 -22 -23 -22 -22 -20 -20 -18 -18 -17 -17 -17 -18 -18 -17 -15 -15 -15 -16 -16 -16 -16
-22 -23 -23 -23 -23 -24 -24 -24 -24 -24 -24 -24 -24 -25 -25 -25 -24 -23 -24 -23 -23 -22 -22 -21 -21 -22 -22 -22 -21 -22 -21 -21 -20 -19 -18 -17 -18 -18 -17 -17 -15 -15 -16 -17 -17 -15 -16
-25 -25 -26 -26 -26 -26 -26 -26 -26 -26 -25 -26 -25 -25 -25 -25 -25 -25 -24 -24 -24 -24 -23 -22 -22 -23 -22 -22 -21 -21 -21 -20 -19 -19 -19 -17 -18 -18 -18 -17 -16 -16 -17 -17 -17 -15 -17
-25 -26 -27 -27 -27 -27 -27 -27 -27 -26 -26 -26 -26 -26 -27 -25 -25 -25 -25 -24 -25 -24 -24 -23 -23 -23 -22 -22 -21 -20 -20 -19 -20 -20 -20 -19 -19 -18 -19 -18 -17 -17 -17 -17 -15 -17 -17
-26 -26 -27 -28 -28 -28 -28 -28 -27 -27 -27 -27 -26 -26 -26 -26 -25 -25 -25 -25 -25 -24 -24 -23 -23 -23 -22 -22 -21 -20 -21 -20 -20 -21 -21 -20 -19 -19 -19 -18 -18 -17 -17 -17 -17 -16 -17
Height
5728 5730 5732 5733 5737 5740 5743 5744 5746 5749 5753 5755 5757 5760 5763 5765 5768 5771 5774 5776 5778 5780 5782 5784 5784 5785 5785 5788 5786 5790 5788 5789 5787 5787 5787 5786 5784 5785 5784 5780 5777 5771 5768 5768 5765 5766 5763
5714 5716 5718 5721 5724 5726 5729 5732 5735 5737 5741 5744 5746 5749 5752 5755 5758 5761 5764 5766 5769 5772 5774 5775 5777 5779 5781 5785 5777 5782 5781 5781 5782 5782 5783 5781 5781 5780 5780 5778 5774 5769 5766 5764 5763 5765 5764
5700 5703 5705 5707 5709 5712 5715 5719 5722 5724 5727 5731 5734 5738 5742 5744 5747 5750 5754 5757 5759 5763 5766 5767 5769 5771 5776 5779 5770 5776 5778 5776 5777 5777 5778 5776 5776 5777 5775 5774 5770 5767 5764 5763 5761 5761 5760
5687 5689 5690 5693 5696 5699 5702 5706 5708 5712 5715 5719 5721 5725 5730 5732 5736 5739 5743 5747 5750 5754 5756 5758 5760 5762 5771 5768 5766 5769 5770 5772 5771 5771 5772 5771 5771 5772 5772 5771 5767 5764 5762 5762 5759 5758 5760
5675 5676 5678 5680 5683 5686 5689 5692 5696 5698 5702 5705 5710 5713 5717 5721 5723 5727 5731 5735 5738 5743 5746 5748 5751 5754 5762 5764 5761 5762 5764 5765 5765 5766 5766 5765 5766 5766 5767 5767 5765 5761 5760 5756 5753 5755 5755
5664 5665 5666 5668 5670 5674 5677 5680 5684 5687 5690 5694 5697 5701 5705 5708 5712 5715 5719 5722 5725 5731 5734 5739 5742 5747 5750 5756 5755 5756 5757 5758 5759 5760 5761 5760 5760 5761 5762 5762 5762 5759 5752 5750 5752 5756 5753
5658 5659 5659 5661 5662 5663 5667 5670 5673 5676 5679 5682 5685 5689 5693 5696 5700 5704 5708 5709 5713 5718 5723 5730 5732 5736 5740 5744 5749 5750 5749 5751 5752 5755 5756 5754 5756 5757 5756 5757 5757 5754 5751 5750 5751 5752 5751
5647 5649 5650 5651 5652 5654 5656 5659 5662 5666 5669 5673 5676 5679 5682 5686 5690 5693 5695 5698 5698 5705 5713 5718 5723 5726 5732 5733 5737 5742 5741 5744 5745 5749 5747 5749 5753 5750 5750 5751 5751 5746 5747 5749 5748 5747 5748
5634 5636 5638 5639 5640 5641 5644 5647 5650 5653 5657 5660 5663 5667 5671 5675 5679 5682 5685 5688 5688 5692 5700 5713 5715 5718 5724 5722 5726 5732 5732 5737 5740 5739 5742 5741 5748 5743 5744 5746 5747 5742 5745 5747 5746 5742 5746
5618 5620 5621 5623 5625 5627 5629 5633 5636 5641 5643 5646 5649 5654 5658 5663 5668 5669 5673 5677 5681 5685 5690 5699 5709 5710 5713 5716 5715 5723 5725 5730 5731 5734 5736 5732 5739 5738 5739 5741 5741 5740 5742 5742 5741 5740 5739
5601 5602 5604 5606 5608 5611 5615 5618 5621 5625 5628 5631 5635 5639 5645 5650 5653 5655 5662 5664 5669 5678 5680 5689 5692 5701 5704 5707 5712 5715 5717 5717 5722 5728 5728 5731 5731 5731 5733 5736 5736 5737 5737 5738 5738 5736 5735
5583 5584 5585 5587 5590 5593 5597 5600 5604 5607 5610 5614 5618 5623 5629 5635 5637 5637 5644 5648 5656 5666 5673 5677 5681 5687 5694 5699 5701 5704 5707 5711 5714 5717 5718 5720 5724 5725 5728 5730 5732 5732 5732 5733 5734 5731 5730
5565 5565 5567 5568 5569 5572 5576 5580 5583 5588 5593 5596 5599 5604 5612 5620 5615 5623 5627 5633 5640 5652 5669 5673 5673 5677 5682 5689 5694 5693 5698 5701 5704 5709 5711 5717 5717 5719 5722 5723 5726 5727 5728 5729 5730 5729 5731
5545 5546 5547 5548 5550 5553 5557 5561 5565 5569 5574 5578 5581 5586 5593 5602 5597 5604 5608 5614 5621 5658 5659 5659 5659 5661 5668 5675 5683 5685 5688 5692 5696 5699 5704 5706 5707 5713 5717 5718 5722 5721 5723 5724 5724 5726 5726
5524 5526 5527 5530 5533 5536 5539 5543 5548 5553 5557 5561 5562 5568 5577 5584 5582 5587 5590 5592 5627 5644 5646 5648 5646 5647 5656 5663 5670 5675 5679 5683 5687 5691 5695 5699 5699 5708 5707 5713 5715 5717 5716 5722 5720 5719 5721
5508 5510 5512 5516 5519 5523 5527 5531 5535 5540 5544 5547 5550 5554 5564 5568 5568 5570 5574 5591 5616 5625 5626 5626 5630 5637 5643 5648 5657 5663 5668 5675 5678 5684 5687 5691 5692 5698 5702 5707 5707 5708 5715 5715 5715 5713 5716
5493 5497 5500 5504 5508 5512 5515 5520 5524 5529 5533 5536 5539 5543 5557 5557 5555 5559 5571 5590 5599 5604 5605 5609 5615 5627 5632 5636 5639 5647 5657 5668 5670 5674 5679 5684 5684 5690 5694 5694 5700 5703 5704 5707 5709 5710 5711
5480 5484 5488 5492 5496 5500 5504 5508 5513 5519 5524 5525 5528 5535 5545 5542 5546 5559 5573 5582 5587 5590 5591 5592 5602 5610 5619 5627 5632 5636 5642 5650 5658 5664 5669 5674 5676 5679 5684 5688 5692 5696 5699 5703 5702 5708 5707
5467 5471 5475 5479 5483 5487 5492 5497 5502 5507 5512 5515 5517 5524 5528 5532 5542 5555 5565 5571 5573 5577 5579 5584 5585 5598 5611 5617 5622 5628 5632 5641 5646 5652 5657 5663 5665 5670 5677 5680 5680 5685 5691 5696 5698 5699 5699
5455 5459 5463 5466 5470 5474 5479 5484 5489 5494 5500 5502 5505 5510 5517 5523 5536 5546 5554 5558 5563 5567 5572 5578 5583 5588 5598 5601 5610 5617 5628 5632 5633 5638 5646 5654 5657 5661 5666 5673 5678 5680 5686 5688 5692 5691 5693
5442 5445 5448 5452 5457 5461 5465 5470 5475 5480 5485 5486 5488 5498 5507 5518 5529 5533 5540 5549 5556 5562 5567 5569 5574 5581 5589 5594 5602 5606 5618 5624 5627 5633 5637 5643 5645 5653 5659 5666 5670 5673 5678 5681 5682 5686 5684
5427 5430 5433 5436 5440 5445 5450 5455 5460 5465 5469 5468 5473 5487 5497 5508 5512 5518 5526 5540 5548 5555 5558 5562 5567 5575 5582 5584 5594 5602 5610 5618 5621 5626 5629 5633 5637 5644 5649 5657 5660 5664 5668 5669 5674 5677 5678
5410 5413 5416 5419 5423 5427 5432 5437 5443 5448 5450 5450 5460 5474 5479 5491 5493 5504 5522 5537 5542 5539 5546 5552 5560 5566 5569 5580 5581 5586 5597 5601 5607 5615 5622 5624 5629 5633 5639 5647 5652 5652 5656 5662 5668 5672 5673
5392 5393 5395 5398 5402 5407 5412 5418 5424 5428 5434 5438 5449 5456 5458 5472 5478 5501 5511 5520 5523 5528 5537 5542 5550 5553 5572 5567 5572 5581 5586 5592 5597 5606 5608 5612 5618 5623 5629 5637 5637 5642 5649 5655 5658 5661 5666
5370 5370 5371 5373 5377 5382 5388 5395 5402 5409 5414 5420 5431 5438 5444 5452 5471 5484 5495 5504 5510 5515 5523 5531 5544 5552 5553 5558 5564 5568 5574 5580 5587 5593 5599 5602 5609 5611 5616 5621 5628 5634 5642 5648 5652 5655 5658
5345 5343 5342 5342 5345 5349 5356 5365 5375 5386 5395 5403 5414 5425 5433 5442 5448 5477 5478 5489 5496 5504 5512 5519 5534 5538 5538 5549 5551 5556 5565 5573 5579 5585 5587 5592 5594 5603 5607 5612 5616 5624 5636 5642 5643 5640 5650
5325 5323 5321 5319 5321 5327 5333 5342 5352 5363 5374 5383 5394 5411 5423 5430 5444 5457 5464 5475 5485 5490 5498 5511 5519 5523 5529 5539 5541 5548 5554 5563 5569 5576 5582 5583 5586 5594 5600 5604 5612 5615 5630 5632 5631 5641 5646
5308 5303 5299 5298 5299 5304 5312 5323 5335 5347 5360 5370 5385 5398 5412 5420 5442 5445 5458 5468 5474 5480 5487 5501 5504 5511 5521 5527 5534 5540 5545 5554 5560 5568 5568 5575 5580 5585 5592 5597 5602 5612 5615 5620 5628 5633 5634
5292 5285 5280 5274 5275 5284 5295 5308 5321 5332 5346 5358 5374 5392 5407 5420 5429 5439 5455 5460 5464 5474 5481 5488 5498 5507 5514 5519 5527 5533 5539 5545 5550 5557 5565 5571 5580 5584 5586 5591 5596 5605 5605 5611 5613 5619 5622
Wind_Speed
59 59 63 60 60 60 59 59 55 51 51 47 45 44 43 42 42 41 41 38 37 34 31 31 30 27 26 20 26 17 19 20 23 19 20 18 18 21 19 17 19 20 11 10 13 9 12
59 60 59 60 61 62 61 61 58 55 53 52 49 47 44 43 44 43 42 41 40 37 33 31 30 30 24 17 30 22 21 20 23 19 21 20 18 21 20 17 16 19 12 10 9 9 15
58 58 60 57 53 54 59 59 57 57 56 58 58 52 48 44 42 40 40 40 40 38 35 33 33 32 27 19 33 21 19 22 21 19 21 22 20 21 21 18 14 17 11 6 1 13 18
52 55 53 51 50 50 52 54 57 57 55 52 47 49 58 53 48 46 40 40 41 40 39 37 36 35 27 30 32 25 23 21 18 18 22 25 24 20 21 16 13 10 9 6 4 8 13
48 46 47 46 44 46 44 45 49 48 49 47 47 46 46 46 48 51 44 41 42 42 42 41 38 39 29 30 34 30 24 23 21 17 21 24 24 22 21 14 14 10 6 7 11 17 29
39 40 40 39 38 39 41 45 46 43 44 45 45 45 46 45 45 46 49 46 45 43 43 41 41 39 36 30 31 30 29 28 25 24 21 24 22 22 22 16 13 14 16 13 13 16 18
43 44 44 44 43 42 41 42 43 43 43 43 42 43 43 44 45 47 48 52 46 47 45 41 42 41 38 34 30 29 32 33 29 25 22 25 23 19 17 18 16 11 10 12 16 17 14
46 46 47 47 48 47 46 47 47 46 46 46 45 45 46 46 43 40 39 46 49 48 44 40 39 40 36 38 35 32 35 33 32 25 28 28 17 18 19 19 22 7 9 8 13 14 12
52 52 52 52 52 51 51 51 51 51 51 51 49 50 49 47 45 45 44 42 47 48 49 39 37 40 31 40 38 34 38 32 31 32 28 28 15 24 21 18 23 7 8 9 22 19 14
59 57 57 57 56 57 57 56 55 55 55 55 54 53 53 52 50 50 49 47 47 46 46 42 34 38 35 36 38 32 34 33 36 33 29 34 20 24 22 17 19 11 12 14 24 22 19
63 62 61 61 61 61 60 61 60 60 58 58 58 57 57 55 54 53 52 51 50 46 48 42 42 39 39 38 35 30 32 35 35 32 36 26 24 23 21 17 17 12 16 15 17 23 21
67 67 67 66 64 64 63 62 63 62 60 61 61 60 60 58 57 55 55 55 53 52 48 48 47 43 38 36 35 32 33 36 35 34 38 35 27 27 21 20 22 18 19 18 17 17 14
69 69 67 68 67 66 65 64 62 62 62 61 60 61 61 59 58 57 57 58 57 57 49 48 50 48 43 39 36 36 32 34 38 35 38 33 29 28 26 29 25 22 20 19 18 13 7
66 64 63 61 60 60 60 59 58 56 55 53 55 58 57 55 56 57 58 60 62 51 51 52 52 54 51 45 41 37 39 36 37 37 37 37 33 25 24 30 22 20 16 21 22 16 12
58 55 53 52 51 51 50 50 48 47 46 44 45 49 51 48 48 53 55 61 56 52 54 52 53 57 56 50 47 41 42 38 35 35 37 37 34 24 28 25 26 21 25 13 21 25 15
49 48 45 42 41 42 43 43 42 41 41 43 43 44 42 43 46 48 51 53 47 45 51 57 54 49 48 42 41 38 38 38 37 35 34 35 35 28 29 30 31 30 21 24 26 25 22
43 42 42 41 41 42 43 43 41 40 38 40 42 43 39 46 51 53 48 38 30 37 50 54 55 61 56 44 34 28 31 34 35 35 31 31 36 28 28 38 35 31 29 31 28 28 27
41 41 41 40 40 40 39 40 40 39 38 41 43 41 38 43 46 41 30 24 26 29 36 46 51 57 61 54 40 38 34 45 36 38 38 33 36 35 34 37 32 32 25 28 33 26 27
40 40 40 40 39 38 39 41 42 42 42 44 46 44 43 44 39 30 24 24 29 34 39 37 46 55 51 57 54 48 41 34 40 27 39 34 38 40 38 41 39 35 32 29 32 32 35
39 39 40 40 39 40 42 43 45 46 46 49 51 49 47 46 39 34 31 32 30 33 36 35 36 49 56 56 57 55 49 40 38 35 30 32 36 41 43 42 38 41 32 34 30 32 28
39 39 40 41 42 43 44 45 45 47 48 51 56 53 50 44 37 38 37 34 32 33 33 35 38 35 51 62 51 53 56 43 44 41 35 38 44 41 41 44 41 35 33 27 30 35 35
40 42 43 44 45 46 47 47 46 47 47 52 56 54 52 49 48 46 42 35 33 31 35 37 36 32 40 59 65 54 46 47 38 44 45 42 46 44 44 47 45 43 32 31 29 29 36
45 46 48 49 50 51 51 51 52 53 54 54 55 52 54 53 55 51 45 37 36 40 40 41 35 34 33 40 68 68 59 51 54 38 48 48 47 47 47 46 52 52 49 37 34 29 28
51 52 54 56 56 58 58 58 57 59 61 57 59 56 59 60 61 53 48 45 47 47 41 44 43 44 29 40 49 54 56 63 46 53 34 52 52 56 51 47 52 48 49 46 38 38 33
55 58 62 65 67 69 69 69 70 67 65 60 56 61 62 62 60 55 55 54 50 50 50 48 48 43 31 41 47 56 51 60 60 47 29 41 40 52 51 52 49 47 46 48 41 37 37
57 58 60 62 66 67 68 69 67 67 66 64 64 58 58 58 60 51 51 49 52 54 56 57 51 45 42 37 51 56 58 53 59 41 46 22 48 45 48 47 46 45 42 42 45 49 42
37 41 47 53 55 54 53 53 54 57 62 63 65 60 64 69 56 52 48 42 44 51 58 54 48 42 43 38 45 50 58 51 54 53 47 25 43 47 49 44 39 41 38 39 50 39 25
42 45 45 46 47 49 50 50 51 54 52 54 50 47 68 63 54 58 47 38 40 41 43 50 46 47 45 41 43 49 56 56 48 43 34 25 37 34 36 43 47 34 40 47 36 33 33
32 35 36 41 49 50 47 48 43 46 54 55 56 47 51 54 52 48 40 34 39 34 28 42 42 39 43 44 41 41 57 65 66 61 50 38 33 39 38 45 45 45 41 36 36 40 38
Wind_Direction
262 259 261 256 255 257 256 258 255 252 254 255 256 256 256 257 259 260 262 260 263 266 269 269 270 266 271 287 280 289 285 290 302 300 291 302 317 322 323 334 338 337 326 307 319 318 329
263 262 259 258 257 256 253 253 251 251 253 255 254 253 254 256 260 261 262 261 260 262 263 263 265 267 267 284 274 282 286 289 298 288 284 296 311 318 320 325 339 331 319 323 344 333 313
264 257 255 255 255 259 259 255 251 252 252 252 251 252 253 254 255 259 261 261 258 257 257 257 262 266 267 262 270 277 277 281 294 285 280 287 303 309 313 321 333 331 334 45 10 323 340
262 260 254 252 253 255 255 258 253 253 253 253 252 255 250 252 255 255 258 260 258 256 254 256 260 264 264 259 269 274 273 279 285 285 283 284 291 306 307 316 317 329 352 300 288 358 351
261 259 259 257 258 258 257 261 259 260 259 258 258 255 255 255 253 253 253 256 256 255 255 257 259 264 259 253 261 265 273 271 274 282 280 285 288 294 299 299 303 296 292 345 334 318 306
280 280 274 268 263 267 267 263 264 260 259 257 256 256 255 255 257 258 255 252 254 252 254 256 259 261 260 252 253 259 263 265 267 272 278 282 284 293 292 283 283 277 311 312 286 291 317
275 275 276 276 276 270 267 267 267 266 268 265 262 262 260 261 257 258 258 252 247 251 253 253 255 257 258 256 253 252 261 264 266 272 275 272 283 300 277 271 272 278 304 287 258 275 273
275 274 274 272 273 271 269 267 267 264 264 263 261 260 260 260 260 261 259 257 248 248 247 250 251 254 257 258 252 252 256 261 266 268 263 277 294 273 263 255 266 305 305 297 235 273 297
280 278 275 274 274 272 270 269 267 266 265 264 263 262 260 259 259 259 260 255 256 251 249 243 255 256 253 253 254 247 253 254 260 260 271 276 277 267 259 245 259 243 273 260 241 248 252
280 279 277 276 274 274 273 270 268 267 266 265 264 263 262 260 259 259 259 257 255 257 258 255 245 253 253 255 253 249 252 256 255 258 268 265 262 269 268 242 249 244 247 240 222 246 260
280 279 278 276 274 272 270 269 268 267 266 265 263 263 261 260 260 258 258 256 256 255 256 257 256 243 250 253 257 249 251 249 251 256 256 267 260 271 258 243 246 242 239 260 258 251 261
279 278 278 276 273 270 269 267 266 266 265 264 262 261 260 259 259 254 253 252 251 250 251 255 255 252 244 247 253 253 248 250 251 248 253 253 252 255 260 233 244 248 238 258 267 257 258
277 276 274 272 271 270 268 266 265 264 263 262 261 260 259 256 252 253 250 249 244 248 253 254 256 259 255 247 248 254 254 252 256 255 256 265 258 256 262 241 231 244 242 249 257 247 150
272 271 270 268 266 264 263 261 260 260 258 255 255 256 256 254 246 246 244 244 244 251 254 253 255 252 252 249 245 249 253 252 253 255 251 248 246 252 266 254 231 245 231 242 257 243 245
270 268 266 264 262 260 259 258 256 253 252 249 244 245 245 242 242 241 241 240 252 251 250 249 240 251 254 248 245 243 248 248 251 252 253 254 251 241 245 244 227 233 236 236 245 249 235
264 261 258 254 253 253 251 250 250 249 247 244 243 242 237 235 237 237 238 244 255 246 242 239 221 232 242 250 251 246 240 244 247 248 248 249 248 234 242 238 223 233 236 227 234 245 245
254 253 253 251 251 250 248 247 246 244 240 241 241 242 237 239 238 240 241 254 243 232 234 235 238 228 228 224 212 218 240 242 247 246 243 244 244 237 237 235 225 220 225 230 232 236 246
252 250 249 249 248 244 243 241 237 235 240 244 245 240 233 237 240 243 249 246 235 226 233 235 234 232 225 224 212 212 215 223 220 244 243 239 236 239 243 231 226 223 227 236 246 236 244
248 248 249 249 246 241 240 237 236 240 242 243 246 245 241 240 241 244 240 234 228 224 234 237 233 222 224 227 219 215 212 211 221 226 240 231 231 233 225 226 228 225 227 234 242 236 234
250 252 252 251 249 248 246 243 243 244 242 240 243 243 239 241 241 243 240 234 232 231 235 240 240 223 215 221 221 218 216 209 202 209 221 231 230 235 239 232 230 227 223 240 242 241 244
255 257 255 252 250 247 247 244 243 241 241 239 241 241 241 242 245 240 241 243 242 242 240 239 241 239 228 224 223 227 221 222 205 208 210 224 231 230 238 222 223 226 229 231 237 243 246
260 261 261 257 252 249 248 246 242 240 241 238 241 244 243 242 242 237 234 234 237 240 248 249 249 250 232 228 226 221 223 222 221 211 219 220 231 230 233 230 222 221 219 213 228 238 237
269 267 265 260 255 252 249 247 245 244 243 237 242 243 240 236 240 238 241 241 240 235 239 243 243 246 238 235 228 226 223 227 229 220 223 229 227 235 232 229 223 230 222 218 229 230 240
273 271 268 264 260 257 253 250 248 246 243 240 244 241 239 242 240 243 239 235 234 237 243 244 239 243 248 224 229 231 231 222 221 226 236 227 229 230 235 231 228 238 226 220 229 221 222
273 272 270 267 263 258 254 251 247 244 240 236 232 234 237 241 242 239 241 242 238 236 238 247 243 239 230 220 224 223 219 220 217 217 234 226 232 223 230 235 239 235 229 226 225 220 227
271 267 264 262 258 255 252 249 244 239 237 234 233 235 236 241 247 246 242 241 240 241 238 238 233 234 232 220 221 224 225 235 234 222 228 210 217 217 227 229 238 236 230 224 227 230 229
271 273 272 265 255 248 242 237 236 234 233 232 231 229 220 233 233 232 236 234 233 232 232 228 225 230 233 231 224 220 218 222 228 233 235 218 207 224 234 236 239 247 231 227 229 235 234
279 275 275 263 257 245 236 231 231 226 221 223 226 218 212 225 227 228 226 225 228 232 232 221 225 224 230 231 232 228 222 219 220 222 249 227 232 224 225 231 234 240 241 233 241 238 224
289 282 279 270 244 234 229 225 222 219 213 212 211 211 204 216 219 222 217 225 220 221 221 222 221 227 231 232 233 232 223 225 227 230 242 249 240 239 234 226 230 231 236 245 241 239 222